| time (UTC) | temp F | wind direction | speed knots | gust knots | rain 1hr in | rain 24hr in | rain mn in | humidity % | barometer mb |
| 20260504151008 | 59 | 142 | 0.9 | 1.7 | 0.00 | 0.00 | 0.00 | 82 | 1011.2 |
| 20260504150508 | 58 | 130 | 0.9 | 1.7 | 0.00 | 0.00 | 0.00 | 85 | 1011.1 |
| 20260504141012 | 49 | 333 | 0.0 | 1.7 | 0.00 | 0.00 | 0.00 | 96 | 1010.8 |
| 20260504140503 | 49 | 333 | 0.0 | 1.7 | 0.00 | 0.00 | 0.00 | 96 | 1010.9 |
| 20260504130505 | 45 | 115 | 0.0 | 1.7 | 0.00 | 0.00 | 0.00 | 94 | 1010.3 |
| 20260504110506 | 47 | 290 | 0.0 | 1.7 | 0.00 | 0.00 | 0.00 | 93 | 1010.3 |
| 20260504100503 | 48 | 271 | 0.0 | 1.7 | 0.00 | 0.00 | 0.00 | 92 | 1010.1 |
| 20260504082007 | 50 | 173 | 0.0 | 1.7 | 0.00 | 0.00 | 0.00 | 90 | 1010.0 |
| 20260504081529 | 50 | 173 | 0.9 | 0.9 | 0.00 | 0.00 | 0.00 | 90 | 1010.0 |
| 20260504081012 | 50 | 125 | 0.9 | 1.7 | 0.00 | 0.00 | 0.00 | 90 | 1010.1 |
| 20260504080504 | 50 | 103 | 0.0 | 1.7 | 0.00 | 0.00 | 0.00 | 89 | 1010.0 |
| 20260504050506 | 57 | 203 | 1.7 | 2.6 | 0.00 | 0.00 | 0.00 | 79 | 1009.9 |
| 20260504050007 | 57 | 210 | 0.9 | 1.7 | 0.00 | 0.00 | 0.00 | 79 | 1010.0 |
| 20260504045501 | 58 | 218 | 0.9 | 1.7 | 0.00 | 0.00 | 0.00 | 79 | 1010.0 |
| 20260504045001 | 58 | 196 | 0.9 | 1.7 | 0.00 | 0.00 | 0.00 | 78 | 1010.0 |
| 20260504044508 | 58 | 192 | 0.9 | 1.7 | 0.00 | 0.00 | 0.00 | 77 | 1010.0 |
| 20260504044002 | 59 | 219 | 1.7 | 1.7 | 0.00 | 0.00 | 0.00 | 77 | 1010.1 |
| 20260504043503 | 59 | 225 | 1.7 | 1.7 | 0.00 | 0.00 | 0.00 | 75 | 1010.1 |
| 20260504043012 | 60 | 216 | 0.9 | 2.6 | 0.00 | 0.00 | 0.00 | 75 | 1010.1 |
| 20260504042503 | 60 | 209 | 1.7 | 2.6 | 0.00 | 0.00 | 0.00 | 74 | 1010.0 |
| 20260504042003 | 60 | 219 | 1.7 | 2.6 | 0.00 | 0.00 | 0.00 | 73 | 1010.0 |
| 20260504041510 | 61 | 228 | 1.7 | 1.7 | 0.00 | 0.00 | 0.00 | 73 | 1010.0 |
| 20260504041002 | 62 | 221 | 0.9 | 1.7 | 0.00 | 0.00 | 0.00 | 72 | 1010.0 |
| 20260504040503 | 62 | 223 | 1.7 | 3.5 | 0.00 | 0.00 | 0.00 | 71 | 1010.0 |
| 20260504040008 | 62 | 198 | 1.7 | 3.5 | 0.00 | 0.00 | 0.00 | 70 | 1010.0 |
| 20260504035503 | 62 | 193 | 1.7 | 2.6 | 0.00 | 0.00 | 0.00 | 70 | 1009.9 |
| 20260504035004 | 63 | 211 | 0.9 | 2.6 | 0.00 | 0.00 | 0.00 | 70 | 1010.0 |
| 20260504034517 | 63 | 205 | 0.9 | 3.5 | 0.00 | 0.00 | 0.00 | 69 | 1009.9 |
| 20260504034001 | 64 | 215 | 1.7 | 3.5 | 0.00 | 0.00 | 0.00 | 68 | 1009.9 |
| 20260504033503 | 64 | 209 | 1.7 | 2.6 | 0.00 | 0.00 | 0.00 | 68 | 1009.9 |
| 20260504033021 | 65 | 215 | 1.7 | 2.6 | 0.00 | 0.00 | 0.00 | 67 | 1010.0 |
| 20260504032503 | 66 | 205 | 0.9 | 2.6 | 0.00 | 0.00 | 0.00 | 65 | 1010.0 |
| 20260504032005 | 67 | 205 | 1.7 | 2.6 | 0.00 | 0.00 | 0.00 | 64 | 1009.9 |
| 20260504031518 | 67 | 202 | 1.7 | 2.6 | 0.00 | 0.00 | 0.00 | 63 | 1009.9 |
| 20260504031003 | 68 | 204 | 1.7 | 2.6 | 0.00 | 0.00 | 0.00 | 63 | 1009.9 |
| 20260504030505 | 69 | 197 | 0.9 | 1.7 | 0.00 | 0.00 | 0.00 | 62 | 1009.9 |
| 20260504030012 | 69 | 196 | 1.7 | 2.6 | 0.00 | 0.00 | 0.00 | 60 | 1010.0 |
| 20260504025502 | 70 | 193 | 1.7 | 2.6 | 0.00 | 0.00 | 0.00 | 59 | 1009.9 |
| 20260504025003 | 71 | 192 | 1.7 | 2.6 | 0.00 | 0.00 | 0.00 | 58 | 1009.9 |
| 20260504024510 | 71 | 181 | 0.9 | 2.6 | 0.00 | 0.00 | 0.00 | 58 | 1009.9 |
| 20260504024004 | 71 | 212 | 0.9 | 2.6 | 0.00 | 0.00 | 0.00 | 57 | 1010.0 |
| 20260504023503 | 72 | 228 | 1.7 | 3.5 | 0.00 | 0.00 | 0.00 | 55 | 1010.0 |
| 20260504023016 | 72 | 215 | 1.7 | 3.5 | 0.00 | 0.00 | 0.00 | 55 | 1009.9 |
| 20260504022503 | 73 | 228 | 2.6 | 4.3 | 0.00 | 0.00 | 0.00 | 53 | 1009.9 |
| 20260504022003 | 74 | 209 | 2.6 | 4.3 | 0.00 | 0.00 | 0.00 | 53 | 1010.0 |
| 20260504021508 | 74 | 216 | 1.7 | 5.2 | 0.00 | 0.00 | 0.00 | 53 | 1010.0 |
| 20260504021003 | 75 | 175 | 2.6 | 5.2 | 0.00 | 0.00 | 0.00 | 53 | 1010.0 |
| 20260504020503 | 76 | 208 | 2.6 | 4.3 | 0.00 | 0.00 | 0.00 | 51 | 1010.0 |
| 20260504020015 | 76 | 153 | 3.5 | 4.3 | 0.00 | 0.00 | 0.00 | 51 | 1010.0 |
| 20260504015504 | 77 | 189 | 1.7 | 4.3 | 0.00 | 0.00 | 0.00 | 50 | 1010.1 |
| 20260504015004 | 78 | 202 | 1.7 | 3.5 | 0.00 | 0.00 | 0.00 | 46 | 1010.2 |
| 20260504014510 | 79 | 250 | 0.9 | 2.6 | 0.00 | 0.00 | 0.00 | 39 | 1010.3 |
| 20260504014002 | 78 | 273 | 0.9 | 3.5 | 0.00 | 0.00 | 0.00 | 35 | 1010.3 |
| 20260504013505 | 79 | 237 | 2.6 | 3.5 | 0.00 | 0.00 | 0.00 | 36 | 1010.3 |
| 20260504013016 | 79 | 223 | 1.7 | 3.5 | 0.00 | 0.00 | 0.00 | 36 | 1010.3 |
| 20260504012510 | 78 | 261 | 1.7 | 4.3 | 0.00 | 0.00 | 0.00 | 36 | 1010.4 |
| 20260504012006 | 78 | 234 | 2.6 | 5.2 | 0.00 | 0.00 | 0.00 | 35 | 1010.4 |
| 20260504011509 | 79 | 238 | 2.6 | 5.2 | 0.00 | 0.00 | 0.00 | 39 | 1010.5 |
| 20260504011004 | 78 | 269 | 1.7 | 5.2 | 0.00 | 0.00 | 0.00 | 37 | 1010.6 |
| 20260504010504 | 79 | 204 | 2.6 | 5.2 | 0.00 | 0.00 | 0.00 | 36 | 1010.6 |
| 20260504010012 | 79 | 259 | 0.9 | 7.8 | 0.00 | 0.00 | 0.00 | 38 | 1010.7 |
| 20260504005504 | 79 | 277 | 2.6 | 7.8 | 0.00 | 0.00 | 0.00 | 38 | 1010.6 |
| 20260504005010 | 79 | 280 | 3.5 | 7.0 | 0.00 | 0.00 | 0.00 | 35 | 1010.8 |
| 20260504004519 | 79 | 289 | 4.3 | 7.0 | 0.00 | 0.00 | 0.00 | 36 | 1010.9 |
| 20260504004006 | 79 | 254 | 2.6 | 7.8 | 0.00 | 0.00 | 0.00 | 37 | 1010.9 |
| 20260504003503 | 79 | 279 | 4.3 | 7.8 | 0.00 | 0.00 | 0.00 | 34 | 1010.9 |
| 20260504003010 | 79 | 343 | 3.5 | 6.1 | 0.00 | 0.00 | 0.00 | 36 | 1010.9 |
| 20260504002502 | 79 | 294 | 3.5 | 6.1 | 0.00 | 0.00 | 0.00 | 35 | 1011.0 |
| 20260504002007 | 79 | 219 | 2.6 | 7.0 | 0.00 | 0.00 | 0.00 | 35 | 1011.0 |
| 20260504001512 | 79 | 228 | 2.6 | 7.0 | 0.00 | 0.00 | 0.00 | 36 | 1011.0 |
| 20260504001003 | 79 | 200 | 3.5 | 7.8 | 0.00 | 0.00 | 0.00 | 34 | 1011.1 |
| 20260504000507 | 79 | 284 | 5.2 | 7.8 | 0.00 | 0.00 | 0.00 | 34 | 1011.1 |
| 20260504000010 | 79 | 273 | 3.5 | 7.8 | 0.00 | 0.00 | 0.00 | 35 | 1011.0 |
| 20260503235504 | 79 | 246 | 3.5 | 7.8 | 0.00 | 0.00 | 0.00 | 36 | 1011.1 |
| 20260503235004 | 79 | 254 | 3.5 | 7.0 | 0.00 | 0.00 | 0.00 | 37 | 1011.3 |
| 20260503234525 | 79 | 273 | 2.6 | 7.0 | 0.00 | 0.00 | 0.00 | 39 | 1011.3 |
| 20260503234004 | 79 | 275 | 3.5 | 7.0 | 0.00 | 0.00 | 0.00 | 38 | 1011.3 |
| 20260503233504 | 79 | 301 | 3.5 | 7.0 | 0.00 | 0.00 | 0.00 | 40 | 1011.3 |
| 20260503233013 | 79 | 283 | 4.3 | 7.0 | 0.00 | 0.00 | 0.00 | 40 | 1011.3 |
| 20260503232503 | 79 | 319 | 3.5 | 7.8 | 0.00 | 0.00 | 0.00 | 41 | 1011.4 |
| 20260503232007 | 78 | 268 | 3.5 | 7.8 | 0.00 | 0.00 | 0.00 | 41 | 1011.4 |
| 20260503231512 | 78 | 274 | 3.5 | 7.0 | 0.00 | 0.00 | 0.00 | 44 | 1011.6 |
| 20260503231008 | 78 | 278 | 2.6 | 7.0 | 0.00 | 0.00 | 0.00 | 45 | 1011.6 |
| 20260503230510 | 78 | 273 | 2.6 | 6.1 | 0.00 | 0.00 | 0.00 | 46 | 1011.7 |
| 20260503230022 | 77 | 225 | 2.6 | 7.8 | 0.00 | 0.00 | 0.00 | 49 | 1011.8 |
| 20260503225503 | 78 | 280 | 5.2 | 9.6 | 0.00 | 0.00 | 0.00 | 46 | 1011.9 |
| 20260503225003 | 78 | 204 | 2.6 | 9.6 | 0.00 | 0.00 | 0.00 | 48 | 1011.9 |
| 20260503224514 | 78 | 263 | 4.3 | 7.8 | 0.00 | 0.00 | 0.00 | 46 | 1012.0 |
| 20260503224006 | 78 | 244 | 2.6 | 7.8 | 0.00 | 0.00 | 0.00 | 45 | 1012.1 |
| 20260503223502 | 78 | 290 | 3.5 | 7.8 | 0.00 | 0.00 | 0.00 | 43 | 1012.2 |
| 20260503223014 | 79 | 287 | 3.5 | 7.8 | 0.00 | 0.00 | 0.00 | 44 | 1012.2 |
| 20260503222506 | 79 | 277 | 3.5 | 8.7 | 0.00 | 0.00 | 0.00 | 44 | 1012.3 |
| 20260503222007 | 78 | 314 | 4.3 | 8.7 | 0.00 | 0.00 | 0.00 | 38 | 1012.4 |
| 20260503221519 | 78 | 277 | 1.7 | 7.0 | 0.00 | 0.00 | 0.00 | 43 | 1012.4 |
| 20260503221010 | 78 | 296 | 4.3 | 7.0 | 0.00 | 0.00 | 0.00 | 40 | 1012.4 |
| 20260503220504 | 78 | 244 | 3.5 | 6.1 | 0.00 | 0.00 | 0.00 | 38 | 1012.4 |
| 20260503220036 | 78 | 230 | 2.6 | 6.1 | 0.00 | 0.00 | 0.00 | 42 | 1012.4 |
| 20260503215507 | 78 | 309 | 1.7 | 6.1 | 0.00 | 0.00 | 0.00 | 42 | 1012.4 |
| 20260503215004 | 78 | 313 | 1.7 | 7.0 | 0.00 | 0.00 | 0.00 | 45 | 1012.4 |
| 20260503214515 | 78 | 250 | 2.6 | 7.0 | 0.00 | 0.00 | 0.00 | 44 | 1012.6 |
| 20260503214003 | 78 | 296 | 2.6 | 7.8 | 0.00 | 0.00 | 0.00 | 43 | 1012.6 |
| 20260503213505 | 78 | 279 | 1.7 | 7.8 | 0.00 | 0.00 | 0.00 | 45 | 1012.7 |
| 20260503213018 | 77 | 271 | 2.6 | 7.8 | 0.00 | 0.00 | 0.00 | 43 | 1012.8 |
| 20260503212507 | 77 | 313 | 3.5 | 7.0 | 0.00 | 0.00 | 0.00 | 44 | 1012.8 |
| 20260503212007 | 77 | 263 | 2.6 | 8.7 | 0.00 | 0.00 | 0.00 | 44 | 1012.9 |
| 20260503211514 | 76 | 300 | 4.3 | 8.7 | 0.00 | 0.00 | 0.00 | 43 | 1012.9 |
| 20260503211004 | 76 | 268 | 1.7 | 6.1 | 0.00 | 0.00 | 0.00 | 45 | 1013.0 |
| 20260503210511 | 76 | 281 | 2.6 | 7.0 | 0.00 | 0.00 | 0.00 | 44 | 1013.1 |
| 20260503210016 | 76 | 248 | 2.6 | 7.0 | 0.00 | 0.00 | 0.00 | 44 | 1013.1 |
| 20260503205507 | 76 | 273 | 2.6 | 7.8 | 0.00 | 0.00 | 0.00 | 51 | 1013.2 |
| 20260503205005 | 76 | 285 | 3.5 | 7.8 | 0.00 | 0.00 | 0.00 | 46 | 1013.2 |
| 20260503204516 | 76 | 275 | 3.5 | 7.0 | 0.00 | 0.00 | 0.00 | 48 | 1013.3 |
| 20260503204009 | 75 | 311 | 1.7 | 8.7 | 0.00 | 0.00 | 0.00 | 47 | 1013.4 |
| 20260503203504 | 75 | 298 | 1.7 | 8.7 | 0.00 | 0.00 | 0.00 | 49 | 1013.5 |
| 20260503203018 | 75 | 298 | 5.2 | 8.7 | 0.00 | 0.00 | 0.00 | 48 | 1013.6 |
| 20260503202506 | 75 | 275 | 2.6 | 8.7 | 0.00 | 0.00 | 0.00 | 48 | 1013.6 |
| 20260503202009 | 75 | 290 | 4.3 | 7.8 | 0.00 | 0.00 | 0.00 | 50 | 1013.7 |
| 20260503201508 | 75 | 317 | 3.5 | 7.8 | 0.00 | 0.00 | 0.00 | 51 | 1013.8 |
| 20260503201006 | 75 | 294 | 4.3 | 7.8 | 0.00 | 0.00 | 0.00 | 52 | 1013.8 |
| 20260503200505 | 75 | 340 | 5.2 | 9.6 | 0.00 | 0.00 | 0.00 | 51 | 1013.9 |
| 20260503200029 | 75 | 267 | 5.2 | 9.6 | 0.00 | 0.00 | 0.00 | 50 | 1013.9 |
| 20260503195503 | 76 | 267 | 4.3 | 9.6 | 0.00 | 0.00 | 0.00 | 52 | 1013.9 |
| 20260503195002 | 76 | 293 | 5.2 | 9.6 | 0.00 | 0.00 | 0.00 | 50 | 1014.0 |
| 20260503194507 | 76 | 310 | 4.3 | 8.7 | 0.00 | 0.00 | 0.00 | 52 | 1014.0 |
| 20260503194002 | 76 | 290 | 3.5 | 7.8 | 0.00 | 0.00 | 0.00 | 49 | 1014.1 |
| 20260503193508 | 77 | 13 | 1.7 | 7.0 | 0.00 | 0.00 | 0.00 | 48 | 1014.0 |
| 20260503193013 | 76 | 261 | 2.6 | 6.1 | 0.00 | 0.00 | 0.00 | 49 | 1014.0 |
| 20260503192505 | 76 | 293 | 1.7 | 7.0 | 0.00 | 0.00 | 0.00 | 46 | 1014.1 |
| 20260503192005 | 76 | 284 | 3.5 | 7.0 | 0.00 | 0.00 | 0.00 | 44 | 1014.2 |
| 20260503191526 | 76 | 315 | 2.6 | 5.2 | 0.00 | 0.00 | 0.00 | 46 | 1014.2 |
| 20260503191009 | 75 | 295 | 2.6 | 6.1 | 0.00 | 0.00 | 0.00 | 47 | 1014.2 |
| 20260503190504 | 75 | 286 | 2.6 | 6.1 | 0.00 | 0.00 | 0.00 | 45 | 1014.1 |
| 20260503190015 | 75 | 326 | 2.6 | 7.0 | 0.00 | 0.00 | 0.00 | 47 | 1014.2 |
| 20260503185508 | 75 | 306 | 2.6 | 7.0 | 0.00 | 0.00 | 0.00 | 47 | 1014.3 |
| 20260503185006 | 75 | 283 | 1.7 | 7.0 | 0.00 | 0.00 | 0.00 | 49 | 1014.3 |
| 20260503184519 | 74 | 291 | 1.7 | 7.0 | 0.00 | 0.00 | 0.00 | 48 | 1014.3 |
| 20260503184004 | 74 | 347 | 2.6 | 6.1 | 0.00 | 0.00 | 0.00 | 46 | 1014.3 |
| 20260503183505 | 74 | 285 | 2.6 | 6.1 | 0.00 | 0.00 | 0.00 | 45 | 1014.4 |
| 20260503183006 | 74 | 283 | 2.6 | 6.1 | 0.00 | 0.00 | 0.00 | 44 | 1014.5 |
| 20260503182503 | 74 | 279 | 1.7 | 3.5 | 0.00 | 0.00 | 0.00 | 47 | 1014.6 |
| 20260503182006 | 74 | 318 | 1.7 | 3.5 | 0.00 | 0.00 | 0.00 | 46 | 1014.6 |
| 20260503181515 | 73 | 9 | 0.0 | 1.7 | 0.00 | 0.00 | 0.00 | 48 | 1014.6 |
| 20260503181006 | 73 | 130 | 0.9 | 3.5 | 0.00 | 0.00 | 0.00 | 46 | 1014.7 |
| 20260503180507 | 72 | 281 | 1.7 | 3.5 | 0.00 | 0.00 | 0.00 | 47 | 1014.8 |
| 20260503180022 | 72 | 286 | 0.9 | 6.1 | 0.00 | 0.00 | 0.00 | 46 | 1014.8 |
| 20260503175503 | 72 | 288 | 2.6 | 6.1 | 0.00 | 0.00 | 0.00 | 47 | 1014.8 |
| 20260503175003 | 73 | 315 | 1.7 | 4.3 | 0.00 | 0.00 | 0.00 | 48 | 1014.9 |
| 20260503174519 | 72 | 29 | 1.7 | 4.3 | 0.00 | 0.00 | 0.00 | 46 | 1014.9 |
| 20260503174008 | 72 | 346 | 0.9 | 4.3 | 0.00 | 0.00 | 0.00 | 51 | 1015.1 |
| 20260503173504 | 71 | 16 | 2.6 | 4.3 | 0.00 | 0.00 | 0.00 | 48 | 1015.1 |
| 20260503173007 | 71 | 325 | 1.7 | 5.2 | 0.00 | 0.00 | 0.00 | 53 | 1015.2 |
| 20260503172504 | 70 | 312 | 2.6 | 5.2 | 0.00 | 0.00 | 0.00 | 52 | 1015.2 |
| 20260503172006 | 70 | 309 | 0.9 | 3.5 | 0.00 | 0.00 | 0.00 | 53 | 1015.2 |
| 20260503171513 | 70 | 21 | 0.9 | 4.3 | 0.00 | 0.00 | 0.00 | 52 | 1015.3 |
| 20260503171003 | 70 | 302 | 1.7 | 5.2 | 0.00 | 0.00 | 0.00 | 52 | 1015.2 |
| 20260503170509 | 70 | 344 | 2.6 | 5.2 | 0.00 | 0.00 | 0.00 | 52 | 1015.3 |